TimePST,TemperatureF,Dew PointF,Humidity,Sea Level PressureIn,VisibilityMPH,Wind Direction,Wind SpeedMPH,Gust SpeedMPH,PrecipitationIn,Events,Conditions,WindDirDegrees,DateUTC
12:15 AM,42.8,41.0,93,30.36,10.0,SSW,10.4,-,0.00,,Overcast,210,2013-02-24 08:15:00
12:35 AM,42.8,41.0,93,30.36,10.0,SSW,8.1,-,0.00,,Overcast,210,2013-02-24 08:35:00
12:55 AM,42.8,41.0,93,30.37,10.0,South,6.9,21.9,0.00,,Overcast,180,2013-02-24 08:55:00
1:15 AM,39.2,39.2,100,30.37,8.0,South,9.2,-,0.00,,Overcast,170,2013-02-24 09:15:00
1:35 AM,39.2,39.2,100,30.38,7.0,South,8.1,-,0.00,,Overcast,180,2013-02-24 09:35:00
1:55 AM,39.2,39.2,100,30.38,5.0,South,4.6,-,0.00,,Overcast,170,2013-02-24 09:55:00
2:15 AM,39.2,39.2,100,30.39,4.0,SSE,3.5,-,0.00,,Overcast,160,2013-02-24 10:15:00
2:35 AM,39.2,39.2,100,30.39,3.0,Calm,Calm,-,0.00,,Overcast,0,2013-02-24 10:35:00
2:55 AM,39.2,39.2,100,30.38,4.0,Calm,Calm,-,0.00,,Overcast,0,2013-02-24 10:55:00
3:15 AM,39.2,39.2,100,30.38,5.0,Calm,Calm,-,0.00,,Overcast,0,2013-02-24 11:15:00
3:35 AM,39.2,39.2,100,30.38,10.0,Calm,Calm,-,0.00,,Overcast,0,2013-02-24 11:35:00
3:55 AM,39.2,39.2,100,30.37,10.0,Calm,Calm,-,0.00,,Overcast,0,2013-02-24 11:55:00
4:15 AM,39.2,39.2,100,30.37,10.0,Calm,Calm,-,0.00,,Overcast,0,2013-02-24 12:15:00
4:35 AM,39.2,39.2,100,30.37,10.0,Calm,Calm,-,0.00,,Overcast,0,2013-02-24 12:35:00
4:55 AM,39.2,39.2,100,30.36,10.0,Calm,Calm,-,0.00,,Overcast,0,2013-02-24 12:55:00
5:15 AM,39.2,39.2,100,30.35,10.0,SE,4.6,-,0.00,,Overcast,140,2013-02-24 13:15:00
5:35 AM,39.2,39.2,100,30.35,10.0,SE,6.9,-,0.00,,Overcast,130,2013-02-24 13:35:00
5:55 AM,41.0,39.2,93,30.35,10.0,SE,9.2,-,0.00,,Overcast,140,2013-02-24 13:55:00
6:15 AM,41.0,39.2,93,30.34,10.0,ESE,9.2,-,0.00,,Overcast,120,2013-02-24 14:15:00
6:35 AM,41.0,39.2,93,30.34,10.0,ESE,10.4,-,0.00,,Overcast,120,2013-02-24 14:35:00
6:55 AM,41.0,39.2,93,30.34,10.0,ESE,8.1,-,0.00,,Overcast,120,2013-02-24 14:55:00
7:15 AM,41.0,39.2,93,30.33,10.0,ESE,10.4,17.3,0.00,,Overcast,120,2013-02-24 15:15:00
7:35 AM,41.0,39.2,93,30.33,10.0,SE,9.2,19.6,0.00,,Overcast,130,2013-02-24 15:35:00
7:55 AM,41.0,39.2,93,30.33,10.0,SE,10.4,18.4,0.00,,Overcast,130,2013-02-24 15:55:00
8:15 AM,42.8,39.2,87,30.33,10.0,SE,10.4,16.1,0.00,,Overcast,130,2013-02-24 16:15:00
8:35 AM,42.8,39.2,87,30.32,10.0,ESE,10.4,-,0.00,,Overcast,120,2013-02-24 16:35:00
8:55 AM,42.8,39.2,87,30.32,10.0,SE,11.5,17.3,0.00,,Overcast,130,2013-02-24 16:55:00
9:15 AM,42.8,39.2,87,30.31,10.0,ESE,9.2,16.1,0.00,,Overcast,120,2013-02-24 17:15:00
9:35 AM,42.8,39.2,87,30.31,10.0,ESE,12.7,18.4,0.00,,Overcast,120,2013-02-24 17:35:00
9:55 AM,42.8,39.2,87,30.31,10.0,SE,11.5,17.3,0.00,,Overcast,130,2013-02-24 17:55:00
10:15 AM,44.6,39.2,81,30.30,10.0,SE,13.8,18.4,0.00,,Overcast,130,2013-02-24 18:15:00
10:35 AM,44.6,39.2,81,30.30,10.0,SE,11.5,18.4,0.00,,Overcast,140,2013-02-24 18:35:00
10:55 AM,44.6,39.2,81,30.29,10.0,SE,12.7,19.6,0.00,,Overcast,140,2013-02-24 18:55:00
11:15 AM,44.6,39.2,81,30.29,10.0,SE,13.8,18.4,0.00,,Overcast,140,2013-02-24 19:15:00
11:35 AM,44.6,39.2,81,30.28,10.0,SE,16.1,19.6,0.00,,Overcast,130,2013-02-24 19:35:00
11:55 AM,46.4,39.2,76,30.27,10.0,SE,13.8,20.7,0.00,,Overcast,140,2013-02-24 19:55:00
12:15 PM,46.4,39.2,76,30.26,10.0,SE,12.7,20.7,0.00,,Overcast,140,2013-02-24 20:15:00
12:35 PM,46.4,39.2,76,30.25,10.0,SE,11.5,-,0.00,,Overcast,130,2013-02-24 20:35:00
12:55 PM,46.4,39.2,76,30.25,10.0,SE,9.2,17.3,0.00,,Overcast,140,2013-02-24 20:55:00
1:15 PM,46.4,39.2,76,30.23,10.0,SE,11.5,19.6,0.00,,Overcast,140,2013-02-24 21:15:00
1:35 PM,46.4,39.2,76,30.23,10.0,SE,11.5,25.3,0.00,,Overcast,140,2013-02-24 21:35:00
1:55 PM,46.4,39.2,76,30.22,10.0,SSE,12.7,17.3,0.00,,Overcast,150,2013-02-24 21:55:00
2:15 PM,46.4,39.2,76,30.21,10.0,SE,12.7,20.7,0.00,,Overcast,140,2013-02-24 22:15:00
2:35 PM,46.4,39.2,76,30.19,10.0,SE,17.3,21.9,0.00,,Overcast,140,2013-02-24 22:35:00
2:55 PM,46.4,39.2,76,30.18,10.0,SE,17.3,24.2,0.00,,Overcast,140,2013-02-24 22:55:00
3:15 PM,46.4,39.2,76,30.17,10.0,SE,19.6,27.6,0.00,,Mostly Cloudy,140,2013-02-24 23:15:00
3:35 PM,46.4,39.2,76,30.16,10.0,SE,16.1,27.6,0.00,,Mostly Cloudy,130,2013-02-24 23:35:00
3:55 PM,46.4,39.2,76,30.15,10.0,SE,12.7,23.0,0.00,,Mostly Cloudy,140,2013-02-24 23:55:00
4:15 PM,46.4,39.2,76,30.15,10.0,SE,11.5,23.0,0.00,,Mostly Cloudy,140,2013-02-25 00:15:00
4:35 PM,46.4,39.2,76,30.14,10.0,SE,16.1,24.2,0.00,,Overcast,140,2013-02-25 00:35:00
4:55 PM,46.4,39.2,76,30.13,10.0,SE,11.5,20.7,0.00,,Overcast,140,2013-02-25 00:55:00
5:15 PM,46.4,39.2,76,30.12,10.0,SE,12.7,21.9,0.00,,Overcast,140,2013-02-25 01:15:00
5:35 PM,46.4,39.2,76,30.12,10.0,SE,12.7,23.0,0.00,,Mostly Cloudy,140,2013-02-25 01:35:00
5:55 PM,46.4,39.2,76,30.10,10.0,SE,15.0,23.0,0.00,,Overcast,140,2013-02-25 01:55:00
6:15 PM,46.4,39.2,76,30.09,10.0,SE,15.0,20.7,0.00,,Overcast,140,2013-02-25 02:15:00
6:35 PM,46.4,39.2,76,30.08,10.0,SE,17.3,26.5,0.00,,Overcast,140,2013-02-25 02:35:00
6:55 PM,46.4,39.2,76,30.06,10.0,SE,18.4,26.5,0.00,,Overcast,130,2013-02-25 02:55:00
7:15 PM,46.4,39.2,76,30.05,10.0,SE,16.1,23.0,0.00,,Overcast,130,2013-02-25 03:15:00
7:35 PM,46.4,39.2,76,30.04,10.0,SE,16.1,21.9,0.00,,Overcast,140,2013-02-25 03:35:00
7:55 PM,46.4,39.2,76,30.03,10.0,SE,17.3,28.8,0.00,,Overcast,130,2013-02-25 03:55:00
8:15 PM,46.4,39.2,76,30.01,10.0,SE,17.3,27.6,0.00,,Mostly Cloudy,140,2013-02-25 04:15:00
8:35 PM,46.4,39.2,76,30.00,10.0,SE,16.1,26.5,0.00,,Mostly Cloudy,130,2013-02-25 04:35:00
8:55 PM,46.4,39.2,76,29.98,10.0,SE,21.9,31.1,0.00,,Mostly Cloudy,140,2013-02-25 04:55:00
9:15 PM,46.4,39.2,76,29.97,10.0,SE,18.4,27.6,0.00,,Mostly Cloudy,140,2013-02-25 05:15:00
9:35 PM,46.4,37.4,71,29.96,10.0,SSE,13.8,31.1,0.00,,Overcast,150,2013-02-25 05:35:00
9:55 PM,46.4,37.4,71,29.96,10.0,SE,19.6,27.6,0.00,,Mostly Cloudy,140,2013-02-25 05:55:00
10:15 PM,46.4,37.4,71,29.95,10.0,SSE,19.6,32.2,0.00,,Mostly Cloudy,150,2013-02-25 06:15:00
10:35 PM,46.4,37.4,71,29.94,10.0,SSE,13.8,23.0,0.00,,Mostly Cloudy,150,2013-02-25 06:35:00
10:55 PM,46.4,39.2,76,29.94,10.0,SSE,19.6,27.6,0.00,,Mostly Cloudy,150,2013-02-25 06:55:00
11:15 PM,44.6,39.2,81,29.93,10.0,SSE,12.7,25.3,0.00,,Overcast,150,2013-02-25 07:15:00
11:35 PM,44.6,39.2,81,29.91,10.0,SE,15.0,24.2,0.00,,Overcast,140,2013-02-25 07:35:00
11:55 PM,44.6,41.0,87,29.91,9.0,SE,13.8,23.0,0.00,,Overcast,140,2013-02-25 07:55:00